{"data":{"norad_id":63641,"intl_designator":"2025-083H","name":"STARLINK-33826","alt_names":[],"object_type":"PAYLOAD","status":"ACTIVE","operator":null,"country":"US","launch_date":"2025-04-25","launch_site_code":"AFETR","launch_vehicle":null,"mission":null,"orbit_class":"UNKNOWN","rcs_meters":null,"size_class":null,"mass_kg":null,"dimensions":null,"purposes":["comms"],"wikipedia_slug":null,"has_3d_model":false,"image_url":null,"decayed_at":null,"tle_current":{"epoch":"2026-05-24T19:59:15.641952Z","epoch_age_seconds":92562,"freshness":"FRESH","line1":"1 63641U 25083H   26144.83281993  .00023446  00000+0  85792-3 0  9990","line2":"2 63641  43.0005 295.0544 0001876 269.1316  90.9321 15.27613856 61716","mean_motion":15.27613856,"eccentricity":0.0001876,"inclination_deg":43.0005,"raan_deg":295.0544,"arg_perigee_deg":269.1316,"mean_anomaly_deg":90.9321,"bstar":0.00085792,"rev_number":6171,"period_min":94.264659510918,"perigee_km":481.66058137471,"apogee_km":484.23486036198,"semimajor_km":6861.0847208683,"source":"CELESTRAK","updated_at":"2026-05-25T13:38:20.053366Z"}}}